{"data":{"norad_id":59442,"epoch":"2026-09-22T11:12:05.516064Z","epoch_age_seconds":93588,"freshness":"FRESH","line1":"1 59442U 24066A   26265.46673051  .00008441  00000+0  25176-3 0  9995","line2":"2 59442  45.6156 309.3170 0011755 301.1743  58.8000 15.35116988136721","mean_motion":15.35116988,"eccentricity":0.0011755,"inclination_deg":45.6156,"raan_deg":309.317,"arg_perigee_deg":301.1743,"mean_anomaly_deg":58.8,"bstar":0.00025176,"rev_number":13672,"period_min":93.803925776112,"perigee_km":452.53412660697,"apogee_km":468.61193388808,"semimajor_km":6838.7100302475,"source":"CELESTRAK","updated_at":"2026-09-23T09:00:19.373913Z"}}